weather.gov     
National Weather Service

Regional Weather Roundup
NWS Homepage
This page is being discontinued on March 12, 2014.
The same data is available at this site. Please update your bookmarks.
Thank you, and we apologize for the inconvenience.
Please send an email to SR-SRH.Webmaster@noaa.gov with any concerns.


Current Version
Previous Version:    01  02  03  04  05  06  07  08  09  10  11  12  13  14  15  16  17  18  19  20  21  22  23  24  25  26  27  28  29  30  
   31  32  33  34  35  36  37  38  39  40  41  42  43  44  45  46  47  48  49  50  51  52  53  54  
[Printable]
772
ASUS41 KBTV 262130
RWRBTV
VERMONT REGIONAL WEATHER ROUNDUP
NATIONAL WEATHER SERVICE BURLINGTON VT
400 PM EST WED NOV 26 2014

NOTE: "FAIR" INDICATES FEW OR NO CLOUDS BELOW 12,000 FEET WITH NO
SIGNIFICANT WEATHER AND/OR OBSTRUCTIONS TO VISIBILITY.

* THESE REPORTS ARE NOT UNDER NWS QUALITY CONTROL AND/OR DO NOT
  REPORT WEATHER SUCH AS PRECIPITATION AND FOG.

VTZ001>019-262200-
_____VERMONT_____


CITY           SKY/WX    TMP DP  RH WIND       PRES   REMARKS
BURLINGTON     LGT SNOW  30  26  85 N9        30.11F VSB 3/4
MONTPELIER     SNOW      29  28  96 N5        30.10F VSB 1/2
MORRISVILLE    LGT SNOW  30  28  92 N5        30.10F FOG
ST. JOHNSBURY*   N/A     31  30  96 MISG      30.08F
LYNDONVILLE*   LGT SNOW  30  28  91 NW7       30.06F
MIDDLEBURY*    LGT SNOW  30  30 100 N5        30.06F
RUTLAND*       CLOUDY    30  28  93 NW7       30.00F VSB 3/4
SPRINGFIELD    LGT SNOW  31  28  89 N6        29.99F VSB 1
HIGHGATE*      LGT SNOW  29  27  90 N5        30.12F
NEWPORT*       LGT SNOW  28  27  95 N9        30.08F
BENNINGTON     LGT SNOW  32  30  92 N3        29.96F FOG
SUTTON*          N/A     28 N/A N/A MISG        N/A
GALLUP MILLS*    N/A     28 N/A N/A MISG        N/A
UNION VILLAGE*   N/A     30 N/A N/A MISG        N/A

_____LAKE CHAMPLAIN_____


CITY           SKY/WX    TMP DP  RH WIND       PRES   REMARKS
BURTON ISLAND*   N/A     32  28  86 N2          N/A
COLCHESTER RF*   N/A     32  32 100 N15         N/A
DIAMOND ISL*     N/A     32  32 100 NW15        N/A

$$

NYZ007-026>031-035-052-083-262200-
_____NORTHERN NEW YORK_____


CITY           SKY/WX    TMP DP  RH WIND       PRES   REMARKS
PLATTSBURGH    LGT SNOW  28  26  92 N9        30.15F VSB 1
SARANAC LAKE     N/A     27  24  89 MISG      30.02F
MASSENA        CLOUDY    31  19  61 NE8       30.17F
OGDENSBURG*    CLEAR     30  23  74 N8        30.14F
POTSDAM*       CLOUDY    30  21  69 NE8       30.13F
STARK FALLS*     N/A     27 N/A N/A N3          N/A
WATERTOWN      CLOUDY    32  18  56 N12       30.13F
FT DRUM        LGT SNOW  27  25  93 NE10      30.11R VSB 3/4 WCI  17
ALBANY         LGT SNOW  32  30  92 N13       30.00F VSB 1
GLENS FALLS    SNOW      32  30  92 N12       30.02F VSB 1/2

$$
NHZ002-005-011-262200-
_____NEW HAMPSHIRE_____


CITY           SKY/WX    TMP DP  RH WIND       PRES   REMARKS
LEBANON        LGT SNOW  32  29  88 N5        30.02F VSB 1
KEENE          CLOUDY    34  32  93 N8        29.96F VSB 1
MT WASHINGTON  HVY SNOW  19  19 100 E24         N/A  VSB 1/16WCI   2
PLYMOUTH       LGT SNOW  32  32 100 CALM      30.02F
WHITEFIELD     LGT SNOW  31  29  92 N6        30.06F VSB 3/4

$$

_____REGIONAL QUEBEC LOCATIONS_____


CITY           SKY/WX    TMP DP  RH WIND       PRES   REMARKS
MONTREAL       CLOUDY    32  21  64 N10       30.17F
QUEBEC CITY    CLOUDY    32  19  59 NE7       30.20S
SHERBROOKE     LGT SNOW  30  25  80 E6        30.14R

_____REGIONAL ONTARIO LOCATIONS_____


CITY           SKY/WX    TMP DP  RH WIND       PRES   REMARKS
OTTAWA         MOCLDY    28  21  74 N6        30.17F

______KEY______
VSB  - VISIBILITY IN MILES
WCI  - WIND CHILL INDEX
HX   - HEAT INDEX
$$
NNNN




U.S. Dept. of Commerce
NOAA National Weather Service
1325 East West Highway
Silver Spring, MD 20910
E-mail: w-nws.webmaster@noaa.gov
Page last modified: May 16, 2007
NATIONAL WEATHER SERVICE: for Safety, for Work, for Fun - FOR LIFE